Location: Saluda
(35.2377°N, 82.3468°W)
Time: 16:31:53
(UTC+00:00)

Explorer 11/Cluster Stage 4 - Pass Details

Date: 04 October 2022
Orbit: 466 x 1247 km, 28.8° (Epoch: 08 December)

Event Time Altitude Azimuth Distance (km) Brightness Sun altitude
Rises 16:58:23 0° 247° (WSW) 4,179 10.4 50.0°
Reaches altitude 10° 17:01:27 10° 242° (WSW) 3,206 10.0 50.0°
Maximum altitude 17:09:11 48° 171° (S) 1,500 11.4 50.2°
Drops below altitude 10° 17:16:08 10° 100° (E) 2,885 9.7 50.2°
Sets 17:18:46 0° 94° (E) 3,733 10.1 50.2°
